Time,TemperatureF,DewpointF,PressureIn,WindDirection,WindDirectionDegrees,WindSpeedMPH,WindSpeedGustMPH,Humidity,HourlyPrecipIn,Conditions,Clouds,dailyrainin,SolarRadiationWatts/m^2,SoftwareType,DateUTC
2013-07-04 00:02:00,75.0,71.0,-100.00,SSW,206,4.0,8.0,87,0.00,,,0.01,0.000000,,2013-07-04 04:02:00,
2013-07-04 00:10:00,75.0,72.0,-100.00,SSW,210,5.0,11.0,89,0.00,,,0.01,0.000000,,2013-07-04 04:10:00,
2013-07-04 00:43:00,75.0,72.0,-100.00,SSW,210,5.0,11.0,89,0.00,,,0.01,0.000000,,2013-07-04 04:43:00,
2013-07-04 00:52:00,75.0,72.0,-100.00,SSW,210,5.0,11.0,89,0.00,,,0.01,0.000000,,2013-07-04 04:52:00,
2013-07-04 01:02:00,75.0,72.0,-100.00,SSW,210,5.0,11.0,89,0.00,,,0.01,0.000000,,2013-07-04 05:02:00,
2013-07-04 01:10:00,74.0,72.0,-100.00,SSW,205,6.0,12.0,93,0.00,,,0.01,0.000000,,2013-07-04 05:10:00,
2013-07-04 01:43:00,74.0,72.0,-100.00,SSW,205,6.0,12.0,93,0.00,,,0.01,0.000000,,2013-07-04 05:43:00,
2013-07-04 01:52:00,74.0,72.0,-100.00,SSW,205,6.0,12.0,93,0.00,,,0.01,0.000000,,2013-07-04 05:52:00,
2013-07-04 02:01:00,74.0,72.0,-100.00,SSW,205,6.0,12.0,93,0.00,,,0.01,0.000000,,2013-07-04 06:01:00,
2013-07-04 02:10:00,74.0,72.0,-100.00,SW,215,5.0,11.0,95,0.00,,,0.01,0.000000,,2013-07-04 06:10:00,
2013-07-04 02:43:00,74.0,72.0,-100.00,SW,215,5.0,11.0,95,0.00,,,0.01,0.000000,,2013-07-04 06:43:00,
2013-07-04 02:53:00,74.0,72.0,-100.00,SW,215,5.0,11.0,95,0.00,,,0.01,0.000000,,2013-07-04 06:53:00,
2013-07-04 03:02:00,74.0,72.0,-100.00,SW,215,5.0,11.0,95,0.00,,,0.01,0.000000,,2013-07-04 07:02:00,
2013-07-04 03:10:00,73.0,72.0,-100.00,SSW,213,5.0,10.0,96,0.00,,,0.01,0.000000,,2013-07-04 07:10:00,
2013-07-04 03:43:00,73.0,72.0,-100.00,SSW,213,5.0,10.0,96,0.00,,,0.01,0.000000,,2013-07-04 07:43:00,
2013-07-04 03:52:00,73.0,72.0,-100.00,SSW,213,5.0,10.0,96,0.00,,,0.01,0.000000,,2013-07-04 07:52:00,
2013-07-04 04:02:00,73.0,72.0,-100.00,SSW,213,5.0,10.0,96,0.00,,,0.01,0.000000,,2013-07-04 08:02:00,
2013-07-04 04:10:00,73.0,72.0,-100.00,SW,222,5.0,11.0,96,0.00,,,0.01,0.000000,,2013-07-04 08:10:00,
2013-07-04 04:43:00,73.0,72.0,-100.00,SW,222,5.0,11.0,96,0.00,,,0.01,0.000000,,2013-07-04 08:43:00,
2013-07-04 04:53:00,73.0,72.0,-100.00,SW,222,5.0,11.0,96,0.00,,,0.01,0.000000,,2013-07-04 08:53:00,
2013-07-04 05:02:00,73.0,72.0,-100.00,SW,222,5.0,11.0,96,0.00,,,0.01,0.000000,,2013-07-04 09:02:00,
2013-07-04 06:10:00,72.0,71.0,-100.00,SW,223,5.0,10.0,98,-99.99,,,0.01,9.000000,,2013-07-04 10:10:00,
2013-07-04 06:43:00,72.0,71.0,-100.00,SW,223,5.0,10.0,98,-99.99,,,0.01,9.000000,,2013-07-04 10:43:00,
2013-07-04 06:53:00,72.0,71.0,-100.00,SW,223,5.0,10.0,98,-99.99,,,0.01,9.000000,,2013-07-04 10:53:00,
2013-07-04 07:02:00,72.0,71.0,-100.00,SW,223,5.0,10.0,98,-99.99,,,0.01,9.000000,,2013-07-04 11:02:00,
2013-07-04 07:10:00,73.0,72.0,-100.00,SW,229,5.0,10.0,97,0.00,,,0.01,55.000000,,2013-07-04 11:10:00,
2013-07-04 07:43:00,73.0,72.0,-100.00,SW,229,5.0,10.0,97,0.00,,,0.01,55.000000,,2013-07-04 11:43:00,
2013-07-04 07:53:00,73.0,72.0,-100.00,SW,229,5.0,10.0,97,0.00,,,0.01,55.000000,,2013-07-04 11:53:00,
2013-07-04 08:02:00,73.0,72.0,-100.00,SW,229,5.0,10.0,97,0.00,,,0.01,55.000000,,2013-07-04 12:02:00,
2013-07-04 08:10:00,74.0,71.0,-100.00,SW,232,4.0,10.0,91,0.00,,,0.01,162.000000,,2013-07-04 12:10:00,
2013-07-04 08:43:00,74.0,71.0,-100.00,SW,232,4.0,10.0,91,0.00,,,0.01,162.000000,,2013-07-04 12:43:00,
2013-07-04 08:52:00,74.0,71.0,-100.00,SW,232,4.0,10.0,91,0.00,,,0.01,162.000000,,2013-07-04 12:52:00,
2013-07-04 09:02:00,74.0,71.0,-100.00,SW,232,4.0,10.0,91,0.00,,,0.01,162.000000,,2013-07-04 13:02:00,
2013-07-04 09:10:00,76.0,72.0,-100.00,SW,232,5.0,12.0,88,0.00,,,0.01,188.000000,,2013-07-04 13:10:00,
2013-07-04 09:43:00,76.0,72.0,-100.00,SW,232,5.0,12.0,88,0.00,,,0.01,188.000000,,2013-07-04 13:43:00,
2013-07-04 09:53:00,76.0,72.0,-100.00,SW,232,5.0,12.0,88,0.00,,,0.01,188.000000,,2013-07-04 13:53:00,
2013-07-04 10:02:00,76.0,72.0,-100.00,SW,232,5.0,12.0,88,0.00,,,0.01,188.000000,,2013-07-04 14:02:00,
2013-07-04 10:10:00,78.0,73.0,-100.00,SSW,212,7.0,11.0,85,0.00,,,0.01,338.000000,,2013-07-04 14:10:00,
2013-07-04 10:43:00,78.0,73.0,-100.00,SSW,212,7.0,11.0,85,0.00,,,0.01,338.000000,,2013-07-04 14:43:00,
2013-07-04 10:53:00,78.0,73.0,-100.00,SSW,212,7.0,11.0,85,0.00,,,0.01,338.000000,,2013-07-04 14:53:00,
2013-07-04 11:02:00,78.0,73.0,-100.00,SSW,212,7.0,11.0,85,0.00,,,0.01,338.000000,,2013-07-04 15:02:00,
2013-07-04 11:10:00,78.0,71.0,-100.00,SSW,203,6.0,12.0,80,0.00,,,0.01,424.000000,,2013-07-04 15:10:00,
2013-07-04 11:43:00,78.0,71.0,-100.00,SSW,203,6.0,12.0,80,0.00,,,0.01,424.000000,,2013-07-04 15:43:00,
2013-07-04 11:53:00,78.0,71.0,-100.00,SSW,203,6.0,12.0,80,0.00,,,0.01,424.000000,,2013-07-04 15:53:00,
2013-07-04 12:02:00,78.0,71.0,-100.00,SSW,203,6.0,12.0,80,0.00,,,0.01,424.000000,,2013-07-04 16:02:00,
2013-07-04 12:10:00,81.0,72.0,-100.00,SSW,213,6.0,13.0,73,0.00,,,0.01,830.000000,,2013-07-04 16:10:00,
2013-07-04 12:43:00,81.0,72.0,-100.00,SSW,213,6.0,13.0,73,0.00,,,0.01,830.000000,,2013-07-04 16:43:00,
2013-07-04 12:52:00,81.0,72.0,-100.00,SSW,213,6.0,13.0,73,0.00,,,0.01,830.000000,,2013-07-04 16:52:00,
2013-07-04 13:02:00,81.0,72.0,-100.00,SSW,213,6.0,13.0,73,0.00,,,0.01,830.000000,,2013-07-04 17:02:00,
2013-07-04 13:10:00,83.0,73.0,-100.00,SSW,195,8.0,14.0,73,0.00,,,0.00,591.000000,,2013-07-04 17:10:00,
2013-07-04 13:43:00,83.0,73.0,-100.00,SSW,195,8.0,14.0,73,0.00,,,0.00,591.000000,,2013-07-04 17:43:00,
2013-07-04 13:53:00,83.0,73.0,-100.00,SSW,195,8.0,14.0,73,0.00,,,0.00,591.000000,,2013-07-04 17:53:00,
2013-07-04 14:01:00,83.0,73.0,-100.00,SSW,195,8.0,14.0,73,0.00,,,0.00,591.000000,,2013-07-04 18:01:00,
2013-07-04 14:10:00,84.0,72.0,-100.00,SSW,205,9.0,16.0,68,0.00,,,0.00,846.000000,,2013-07-04 18:10:00,
2013-07-04 14:43:00,84.0,72.0,-100.00,SSW,205,9.0,16.0,68,0.00,,,0.00,846.000000,,2013-07-04 18:43:00,
2013-07-04 14:52:00,84.0,72.0,-100.00,SSW,205,9.0,16.0,68,0.00,,,0.00,846.000000,,2013-07-04 18:52:00,
2013-07-04 15:02:00,84.0,72.0,-100.00,SSW,205,9.0,16.0,68,0.00,,,0.00,846.000000,,2013-07-04 19:02:00,
2013-07-04 15:10:00,85.0,72.0,-100.00,SSW,201,8.0,16.0,66,0.00,,,0.00,758.000000,,2013-07-04 19:10:00,
2013-07-04 15:43:00,85.0,72.0,-100.00,SSW,201,8.0,16.0,66,0.00,,,0.00,758.000000,,2013-07-04 19:43:00,
2013-07-04 15:53:00,85.0,72.0,-100.00,SSW,201,8.0,16.0,66,0.00,,,0.00,758.000000,,2013-07-04 19:53:00,
2013-07-04 16:02:00,85.0,72.0,-100.00,SSW,201,8.0,16.0,66,0.00,,,0.00,758.000000,,2013-07-04 20:02:00,
2013-07-04 16:10:00,84.0,71.0,-100.00,South,187,8.0,15.0,66,0.00,,,0.00,569.000000,,2013-07-04 20:10:00,
2013-07-04 16:42:00,84.0,71.0,-100.00,South,187,8.0,15.0,66,0.00,,,0.00,569.000000,,2013-07-04 20:42:00,
2013-07-04 16:53:00,84.0,71.0,-100.00,South,187,8.0,15.0,66,0.00,,,0.00,569.000000,,2013-07-04 20:53:00,
2013-07-04 17:01:00,84.0,71.0,-100.00,South,187,8.0,15.0,66,0.00,,,0.00,569.000000,,2013-07-04 21:01:00,
2013-07-04 17:10:00,85.0,74.0,-100.00,SSW,197,8.0,14.0,70,0.00,,,0.00,548.000000,,2013-07-04 21:10:00,
2013-07-04 17:43:00,85.0,74.0,-100.00,SSW,197,8.0,14.0,70,0.00,,,0.00,548.000000,,2013-07-04 21:43:00,
2013-07-04 17:53:00,85.0,74.0,-100.00,SSW,197,8.0,14.0,70,0.00,,,0.00,548.000000,,2013-07-04 21:53:00,
2013-07-04 18:02:00,85.0,74.0,-100.00,SSW,197,8.0,14.0,70,0.00,,,0.00,548.000000,,2013-07-04 22:02:00,
2013-07-04 18:10:00,84.0,72.0,-100.00,SSW,201,7.0,15.0,67,0.00,,,0.00,525.000000,,2013-07-04 22:10:00,
2013-07-04 18:43:00,84.0,72.0,-100.00,SSW,201,7.0,15.0,67,0.00,,,0.00,525.000000,,2013-07-04 22:43:00,
2013-07-04 18:52:00,84.0,72.0,-100.00,SSW,201,7.0,15.0,67,0.00,,,0.00,525.000000,,2013-07-04 22:52:00,
2013-07-04 19:02:00,84.0,72.0,-100.00,SSW,201,7.0,15.0,67,0.00,,,0.00,525.000000,,2013-07-04 23:02:00,
2013-07-04 19:10:00,83.0,71.0,-100.00,SSW,209,6.0,12.0,68,0.00,,,0.00,296.000000,,2013-07-04 23:10:00,
2013-07-04 19:33:00,83.0,71.0,-100.00,SSW,209,6.0,12.0,68,0.00,,,0.00,296.000000,,2013-07-04 23:33:00,
2013-07-04 19:43:00,83.0,71.0,-100.00,SSW,209,6.0,12.0,68,0.00,,,0.00,296.000000,,2013-07-04 23:43:00,
2013-07-04 19:52:00,83.0,71.0,-100.00,SSW,209,6.0,12.0,68,0.00,,,0.00,296.000000,,2013-07-04 23:52:00,
2013-07-04 20:01:00,83.0,71.0,-100.00,SSW,209,6.0,12.0,68,0.00,,,0.00,296.000000,,2013-07-05 00:01:00,
2013-07-04 21:10:00,77.0,68.0,-100.00,SSW,208,5.0,10.0,75,-99.99,,,0.00,4.000000,,2013-07-05 01:10:00,
2013-07-04 21:32:00,77.0,68.0,-100.00,SSW,208,5.0,10.0,75,-99.99,,,0.00,4.000000,,2013-07-05 01:32:00,
2013-07-04 21:42:00,77.0,68.0,-100.00,SSW,208,5.0,10.0,75,-99.99,,,0.00,4.000000,,2013-07-05 01:42:00,
2013-07-04 21:52:00,77.0,68.0,-100.00,SSW,208,5.0,10.0,75,-99.99,,,0.00,4.000000,,2013-07-05 01:52:00,
2013-07-04 22:02:00,77.0,68.0,-100.00,SSW,208,5.0,10.0,75,-99.99,,,0.00,4.000000,,2013-07-05 02:02:00,
2013-07-04 22:10:00,76.0,69.0,-100.00,SW,218,4.0,8.0,80,0.00,,,0.00,0.000000,,2013-07-05 02:10:00,
2013-07-04 22:43:00,76.0,69.0,-100.00,SW,218,4.0,8.0,80,0.00,,,0.00,0.000000,,2013-07-05 02:43:00,
2013-07-04 22:53:00,76.0,69.0,-100.00,SW,218,4.0,8.0,80,0.00,,,0.00,0.000000,,2013-07-05 02:53:00,
2013-07-04 23:02:00,76.0,69.0,-100.00,SW,218,4.0,8.0,80,0.00,,,0.00,0.000000,,2013-07-05 03:02:00,
2013-07-04 23:10:00,75.0,69.0,-100.00,SW,216,4.0,9.0,82,0.00,,,0.00,0.000000,,2013-07-05 03:10:00,
2013-07-04 23:33:00,75.0,69.0,-100.00,SW,216,4.0,9.0,82,0.00,,,0.00,0.000000,,2013-07-05 03:33:00,
2013-07-04 23:42:00,75.0,69.0,-100.00,SW,216,4.0,9.0,82,0.00,,,0.00,0.000000,,2013-07-05 03:42:00,
2013-07-04 23:52:00,75.0,69.0,-100.00,SW,216,4.0,9.0,82,0.00,,,0.00,0.000000,,2013-07-05 03:52:00,